Regional Weather Roundup
Issued by NWS State College, PA

Home | Current Version | Previous Version | Graphics & Text | Print | Product List | Glossary On
Versions: 1 2 3 4 5 6 7 8 9 10 11 12 13 14 15 16 17 18 19 20 21 22 23 24 25 26 27 28 29 30 31 32 33 34 35 36 37 38 39 40 41 42 43 44 45 46 47 48 49 50
413
ASUS41 KCTP 090810
RWRCTP

REGIONAL WEATHER ROUNDUP
NATIONAL WEATHER SERVICE STATE COLLEGE PA
300 AM EST TUE FEB 09 2016

Note: "fair" indicates few or no clouds below 12,000 feet with no
significant weather and/or obstructions to visibility.

* = STATION THAT DOES NOT REPORT PRECIPITATION /E.G. RAIN...SNOW...ETC/
    THUNDER OR FOG.

PAZ002>004-007>009-013>016-020>023-029>032-090900-
WESTERN PENNSYLVANIA

CITY           SKY/WX    TMP DP  RH WIND       PRES   REMARKS
ERIE           FLURRIES  35  30  82 SW5       29.53F
MEADVILLE      LGT SNOW  32  29  88 SW3       29.51S FOG
FRANKLIN*      CLOUDY    30  27  86 SW3       29.53F
NEW CASTLE     MIX PCPN  32  30  92 CALM      29.54F FOG
BEAVER COUNTY  NOT AVBL
BUTLER*        CLOUDY    30  27  86 CALM      29.57S
PITTSBURGH INT LGT SNOW  31  29  92 CALM      29.53F FOG
PITTSBURGH     LGT SNOW  33  30  88 SW5       29.53F FOG
INDIANA*       CLOUDY    32  32 100 CALM      29.55F
LATROBE        PTCLDY    32  32 100 CALM      29.54F
WASHINGTON CO* PTCLDY    30  27  86 CALM      29.54F
$$

PAZ004>006-010>012-017>019-024>028-033>037-041-042-045-046-049>053-090900-
CENTRAL PENNSYLVANIA

CITY           SKY/WX    TMP DP  RH WIND       PRES   REMARKS
BRADFORD       CLOUDY    30  26  85 S6        29.48F
DUBOIS         CLOUDY    30  28  92 SW5       29.49F
CLEARFIELD     CLOUDY    31  28  89 CALM      29.52F FOG
JOHNSTOWN      CLOUDY    29  23  78 CALM      29.48F
ALTOONA        CLOUDY    31  29  92 CALM      29.52F FOG
STATE COLLEGE  CLOUDY    34  30  86 S3        29.54S
WILLIAMSPORT   LGT SNOW  32  28  85 MISG      29.59F FOG
SELINSGROVE    CLOUDY    33  29  85 SE6       29.61S
FT INDIANTOWN  LGT SNOW  30  30 100 NE5       29.62F FOG
CAPITAL CITY   CLOUDY    33  29  85 E15       29.61F
HARRISBURG     FLURRIES  33  30  88 E12       29.61F
YORK           FLURRIES  33  31  92 E7        29.59F
$$

PAZ038>040-043-044-047-048-054-055-060>062-067>071-090900-
EASTERN PENNSYLVANIA

CITY           SKY/WX    TMP DP  RH WIND       PRES   REMARKS
SCRANTON       CLOUDY    28  21  75 VRB6      29.60F
MOUNT POCONO   CLOUDY    22  20  92 SE8       29.56F WCI  12
ALLENTOWN      FLURRIES  30  24  78 E9        29.67S
QUAKERTOWN*    CLOUDY    28  27  93 SE3       29.66F
READING        FLURRIES  31  26  82 E6        29.64F
LANCASTER      CLOUDY    30  29  96 E10       29.63S
COATESVILLE    FLURRIES  30  30 100 E9        29.63F
POTTSTOWN      LGT SNOW  29  27  92 E6        29.67F FOG
BLUE BELL        N/A     30  28  93 E7        29.65F
DOYLESTOWN     CLOUDY    27  25  92 CALM      29.66F
WILLOW GROVE   NOT AVBL
NORTH PHILA    CLOUDY    32  27  81 E9        29.69F
PHILADELPHIA   CLOUDY    32  27  81 E8        29.67F
$$




USA.gov is the U.S. government's official web portal to all federal, state and local government web resources and services.